Location: Alafon
(8.4500°N, 4.2333°E)
Time: 18:38:32
(UTC+00:00)

deb Explorer IX - Pass Details

Date: 27 July 2021
Orbit: 545 x 1091 km, 38.8° (Epoch: 20 September)

Event Time Altitude Azimuth Distance (km) Brightness Sun altitude
Rises 10:22:36 0° 203° (SSW) 2,725 ? 66.4°
Reaches altitude 10° 10:25:12 10° 186° (S) 1,871 ? 66.9°
Maximum altitude 10:28:28 21° 136° (SE) 1,356 ? 67.6°
Drops below altitude 10° 10:32:01 10° 86° (E) 2,044 ? 68.4°
Sets 10:35:00 0° 71° (ENE) 3,056 ? 69.0°
